This demonstration page uses our WeatherBlox Daily Observations layout. Learn more.

Left ArrowRight Arrow

Hourly Observations for March 11, 2016

Temp ( °F °C ) Dew Point ( °F °C ) Humidity (%) Winds ( mph kmh ) Pressure ( in mb ) Visibility ( mi km ) Precip ( " mm )
12:54 am 00:54 Clear 43 6.1 35 1.7 74 74 Calm 30.17 1022 10 16 0.00 0.00
1:54 am 01:54 Clear 42 5.6 36 2.2 79 79 Calm 30.20 1023 9 14 0.00 0.00
2:54 am 02:54 Clear 43 6.1 35 1.7 74 74 S 3 6 30.20 1023 9 14 0.00 0.00
3:54 am 03:54 Clear 39 3.9 34 1.1 82 82 Calm 30.21 1023 8 13 0.00 0.00
4:54 am 04:54 Clear 39 3.9 34 1.1 82 82 SSE 3 6 30.21 1023 9 14 0.00 0.00
5:54 am 05:54 Clear 41 5 32 0 70 70 S 3 6 30.21 1023 10 16 0.00 0.00
6:54 am 06:54 Sunny 42 5.6 33 0.6 71 71 S 3 6 30.22 1023 8 13 0.00 0.00
7:54 am 07:54 Sunny 45 7.2 36 2.2 71 71 SSE 7 11 30.22 1023 8 13 0.00 0.00
8:54 am 08:54 Sunny 54 12.2 36 2.2 51 51 SSW 12 19 30.22 1024 9 14 0.00 0.00
9:54 am 09:54 Sunny 61 16.1 35 1.7 38 38 SW 14 22 30.22 1024 10 16 0.00 0.00
10:54 am 10:54 Sunny 67 19.4 36 2.2 32 32 SSW 17 28 30.21 1023 10 16 0.00 0.00
11:54 am 11:54 Sunny 71 21.7 33 0.6 25 25 SSW 17 28 30.21 1023 10 16 0.00 0.00
12:54 pm 12:54 Sunny 72 22.2 32 0 23 23 SW 22 35 30.19 1023 10 16 0.00 0.00
1:54 pm 13:54 Sunny 73 22.8 34 1.1 24 24 S 18 30 30.17 1022 10 16 0.00 0.00
2:54 pm 14:54 Sunny 72 22.2 35 1.7 26 26 SSW 17 28 30.14 1021 10 16 0.00 0.00
3:54 pm 15:54 Sunny 72 22.2 35 1.7 26 26 S 10 17 30.12 1020 10 16 0.00 0.00
4:54 pm 16:54 Sunny 70 21.1 36 2.2 29 29 S 14 22 30.11 1020 10 16 0.00 0.00
5:54 pm 17:54 Sunny 67 19.4 34 1.1 30 30 S 10 17 30.10 1019 10 16 0.00 0.00
6:54 pm 18:54 Clear 57 13.9 34 1.1 42 42 S 7 11 30.12 1020 10 16 0.00 0.00
7:54 pm 19:54 Clear 56 13.3 35 1.7 46 46 SSE 6 9 30.12 1020 10 16 0.00 0.00
8:54 pm 20:54 Clear 53 11.7 35 1.7 51 51 S 6 9 30.12 1020 10 16 0.00 0.00
9:54 pm 21:54 Clear 48 8.9 35 1.7 61 61 S 8 13 30.12 1020 10 16 0.00 0.00
10:54 pm 22:54 Clear 50 10 36 2.2 59 59 S 9 15 30.10 1019 10 16 0.00 0.00
11:54 pm 23:54 Clear 48 8.9 36 2.2 63 63 S 7 11 30.11 1020 9 14 0.00 0.00

Powered by AerisWeather